Greer, SC

5:13 AM EDT on August 28, 2016 (GMT -0400)
Greenville-Spartanburg International

Weather History for KGSP - October, 2014

Change the Weather History Date:

Saturday, October 18, 2014

  Actual Average Record
Temperature  
Mean Temperature 65 °F 61 °F  
Max Temperature 76 °F 72 °F 86 °F (1938)
Min Temperature 54 °F 50 °F 31 °F (1943)
Degree Days  
Heating Degree Days 0 5  
Month to date heating degree days 45 63  
Since 1 July heating degree days 51 80  
Cooling Degree Days 0 1  
Month to date cooling degree days 53 37  
Year to date cooling degree days 1691 1699  
Growing Degree Days 15 (Base 50)    
Moisture  
Dew Point 52 °F    
Average Humidity 69    
Maximum Humidity 93    
Minimum Humidity 44    
Precipitation  
Precipitation 0.00 in 0.11 in 1.15 in (1968)
Month to date precipitation 3.57 2.07  
Year to date precipitation 42.21 38.01  
Snow  
Snow 0.00 in 0.00 in 0.00 in ()
Month to date snowfall 0.0 0.0  
Since 1 July snowfall 0.0 0.0  
Since 1 September snowfall 0.0 0.0  
Snow Depth 0.00 in    
Sea Level Pressure  
Sea Level Pressure 29.84 in    
Wind  
Wind Speed 6 mph (NW)    
Max Wind Speed 16 mph    
Max Gust Speed 22 mph    
Visibility 10 miles    
Events      
T = Trace of Precipitation, MM = Missing Value Source: NWS Daily Summary

Daily Weather History Graph

Daily Weather History Graph

Search for Another Location

Airport or City:

Trip Planner

Search our weather history database for the weather conditions in past years. The results will help you decide how hot, cold, wet, or windy it might be!

Date:

Astronomy

Oct. 18, 2014 Rise Set
Actual Time 7:37 AM EDT 6:50 PM EDT
Civil Twilight 7:11 AM EDT 7:15 PM EDT
Nautical Twilight 6:42 AM EDT 7:45 PM EDT
Astronomical Twilight 6:12 AM EDT 8:14 PM EDT
Moon 2:46 AM EDT (10/18) 3:59 PM EDT (10/18)
Length of Visible Light 12h 04m
Length of Day
11h 13m
Waning Crescent, 24% of the Moon is Illuminated
Oct 18
Waning Crescent
Oct 23
New
Oct 30
First Quarter
Nov 6
Full
Nov 14
Last Quarter

Hourly Weather History & Observations

Time (EDT) Temp. Dew Point Humidity Pressure Visibility Wind Dir Wind Speed Gust Speed Precip Events Conditions
12:53 AM 61.0 °F 55.0 °F 81% 29.81 in 10.0 mi WSW 6.9 mph - N/A   Clear
1:53 AM 61.0 °F 55.0 °F 81% 29.81 in 10.0 mi SW 8.1 mph - N/A   Clear
2:53 AM 60.1 °F 55.0 °F 83% 29.79 in 10.0 mi SW 8.1 mph - N/A   Clear
3:53 AM 59.0 °F 55.0 °F 87% 29.78 in 10.0 mi SW 6.9 mph - N/A   Clear
4:53 AM 57.9 °F 55.0 °F 90% 29.78 in 10.0 mi WSW 3.5 mph - N/A   Clear
5:53 AM 55.0 °F 53.1 °F 93% 29.80 in 10.0 mi Calm Calm - N/A   Clear
6:53 AM 55.0 °F 54.0 °F 96% 29.82 in 9.0 mi Calm Calm - N/A   Clear
7:53 AM 55.0 °F 54.0 °F 96% 29.82 in 10.0 mi SSW 3.5 mph - N/A   Clear
8:53 AM 57.0 °F 55.9 °F 96% 29.83 in 10.0 mi Calm Calm - N/A   Clear
9:53 AM 64.9 °F 57.0 °F 75% 29.84 in 10.0 mi WSW 3.5 mph - N/A   Clear
10:53 AM 69.1 °F 54.0 °F 58% 29.83 in 10.0 mi Variable 3.5 mph - N/A   Clear
11:53 AM 72.0 °F 55.0 °F 55% 29.83 in 10.0 mi SW 5.8 mph - N/A   Clear
12:53 PM 73.9 °F 55.0 °F 52% 29.82 in 10.0 mi Variable 5.8 mph - N/A   Clear
1:53 PM 73.9 °F 54.0 °F 50% 29.80 in 10.0 mi North 8.1 mph - N/A   Clear
2:53 PM 75.9 °F 54.0 °F 46% 29.79 in 10.0 mi North 9.2 mph - N/A   Clear
3:53 PM 75.0 °F 53.1 °F 46% 29.79 in 10.0 mi North 8.1 mph - N/A   Clear
4:53 PM 73.0 °F 50.0 °F 44% 29.79 in 10.0 mi NNE 9.2 mph - N/A   Clear
5:53 PM 71.1 °F 48.9 °F 45% 29.81 in 10.0 mi North 9.2 mph - N/A   Clear
6:53 PM 64.9 °F 46.9 °F 52% 29.85 in 10.0 mi North 8.1 mph - N/A   Clear
7:53 PM 61.0 °F 46.0 °F 58% 29.88 in 10.0 mi North 5.8 mph - N/A   Clear
8:53 PM 57.9 °F 46.0 °F 65% 29.91 in 10.0 mi NW 3.5 mph - N/A   Partly Cloudy
9:53 PM 57.9 °F 44.1 °F 60% 29.93 in 10.0 mi North 4.6 mph - N/A   Partly Cloudy
10:53 PM 57.9 °F 43.0 °F 58% 29.96 in 10.0 mi NNW 8.1 mph - N/A   Clear
11:53 PM 55.9 °F 43.0 °F 62% 29.98 in 10.0 mi North 15.0 mph 21.9 mph N/A   Clear